Find Global-33

NORAD ID: 66554 Int'l Des: 2025-267 Owner: BSKG Country: US operational
LEOCIRCULAR

Live Position

Loading 3D Globe...

About Global-33

Description loading...

Upcoming Passes

Passes for default location (London). Set your location on the main map for personalized predictions.

Altitude History

Loading altitude history...

Two-Line Element Set

1 66554U 25267A 26106.20240424 .00007283 00000-0 21503-3 0 9995
2 66554 42.0196 56.5300 0008477 206.3573 153.6835 15.35286390 22514
Epoch: Apr 16, 2026 • Age: 23 hours

Current Status

Altitude 468.9 km
Velocity 7.63 km/s
Sub-Earth Point -41.77°S, 48.2°E
Launch Date Nov 20, 2025
Age 0.4 years
Type other

Technical Details

Classification Payload
Mass 138.00 kg
Dry Mass 134.00 kg
Total Mass 138.00 kg
Length 1.50 m
Diameter 1.00 m
Span 3.00 m
Shape Box+2 pan
Manufacturer LEOSTL
Bus Type BSky
Phase Status In Orbit
Owner/State BSKG/US

Most Searched